M I D A S
Marine Information and Data Acquisition System
Tripno 1651 of the Zeeleeuw from 2009-03-02 07:39:02 to 2009-03-02 18:03:57
Back to CruiseResearch ActivitiesStationsMapUnderway DataData graphs

EquipmentUnitsComment
TimeDGPSUTC
LatitudeDGPSDM.mWGS84
LongitudeDGPSDM.mWGS84
TemperatureSBE03/SBE38deg celciusITS90
ConductivitySBE21S/mITS90
SalinitySBE21 Practical Salinity Units
ChlorophylAChelsea fluorimeterg/lCalibrated in Aceton
Missing or incorrect values are displayed as -999
Sea surface data collected by the RV Zeeleeuw from 2009-03-02 07:38:28 to 2009-03-02 18:13:10
Time Latitude Longitude Temperature Conductivity Salinity ChlorophylA
2009-03-02 07:39:33 51°13.674 2°55.909 -999 0.090575 0.453583 -1.313985
2009-03-02 07:40:33 51°13.69 2°55.824 -999 0.090677 0.454138 -1.313985
2009-03-02 07:41:33 51°13.697 2°55.783 -999 0.090677 0.454294 -1.313985
2009-03-02 07:42:33 51°13.713 2°55.75 -999 0.09078 0.454878 -1.313985
2009-03-02 07:43:33 51°13.76 2°55.694 -999 0.09078 0.454906 -1.313985
2009-03-02 07:44:33 51°13.826 2°55.644 -999 0.09078 0.454921 -1.279161
2009-03-02 07:45:33 51°13.89 2°55.61 -999 0.090883 0.455498 -1.313985
2009-03-02 07:46:32 51°13.938 2°55.607 -999 0.090883 0.45559 -1.313985
2009-03-02 07:47:33 51°13.951 2°55.605 -999 0.090883 0.455633 -1.313985
2009-03-02 07:48:33 51°13.95 2°55.602 -999 0.090986 0.456196 -1.313985
2009-03-02 07:49:33 51°13.964 2°55.575 -999 0.090986 0.456303 -1.313985
2009-03-02 07:50:33 51°14.031 2°55.508 -999 0.090986 0.456353 -1.313985
2009-03-02 07:51:33 51°14.127 2°55.42 -999 0.090986 0.456418 -1.279161
2009-03-02 07:52:33 51°14.233 2°55.305 -999 0.090986 0.456482 -1.313985
2009-03-02 07:53:33 51°14.334 2°55.14 -999 0.090986 0.456546 -1.313985
2009-03-02 07:54:33 51°14.435 2°54.948 -999 0.090986 0.456597 -1.313985
2009-03-02 07:55:32 51°14.555 2°54.769 -999 0.091089 0.45716 -1.313985
2009-03-02 07:56:33 51°14.708 2°54.61 -999 0.091089 0.457275 -1.279161
2009-03-02 07:57:33 51°14.872 2°54.438 -999 0.091089 0.457354 -1.313985
2009-03-02 07:58:33 51°15.035 2°54.26 -999 0.091192 0.458069 -1.279161
2009-03-02 07:59:33 51°15.197 2°54.079 -999 0.091192 0.458162 -1.279161
2009-03-02 08:00:33 51°15.363 2°53.904 -999 0.091192 0.458191 -1.279161
2009-03-02 08:01:33 51°15.528 2°53.727 -999 0.091295 0.458683 -1.313985
2009-03-02 08:02:33 51°15.699 2°53.562 -999 0.091398 0.459269 -1.313985
2009-03-02 08:03:33 51°15.874 2°53.406 -999 0.091398 0.459443 -1.279161
2009-03-02 08:04:33 51°16.05 2°53.248 -999 0.091501 0.46013 -1.279161
2009-03-02 08:05:33 51°16.232 2°53.111 -999 0.091604 0.460717 -1.244337
2009-03-02 08:06:33 51°16.415 2°52.977 -999 0.091604 0.46079 -1.313985
2009-03-02 08:07:33 51°16.598 2°52.844 -999 0.091707 0.461413 -1.348809
2009-03-02 08:08:33 51°16.781 2°52.712 -999 0.09181 0.461993 -1.313985
2009-03-02 08:09:33 51°16.964 2°52.582 -999 0.09181 0.462015 -1.313985
2009-03-02 08:10:33 51°17.148 2°52.453 -999 0.091913 0.462726 -1.313985
2009-03-02 08:11:33 51°17.332 2°52.325 -999 0.092015 0.46335 -1.279161
2009-03-02 08:12:33 51°17.514 2°52.199 -999 0.092118 0.463902 -1.279161
2009-03-02 08:13:33 51°17.699 2°52.087 -999 0.092118 0.464004 -1.279161
2009-03-02 08:14:33 51°17.886 2°51.991 -999 0.092221 0.464607 -1.279161
2009-03-02 08:15:33 51°18.074 2°51.896 -999 0.092221 0.464659 -1.279161
2009-03-02 08:16:33 51°18.263 2°51.804 -999 0.092324 0.465174 -1.313985
2009-03-02 08:17:33 51°18.453 2°51.711 -999 0.092324 0.46524 -1.313985
2009-03-02 08:18:33 51°18.647 2°51.621 -999 0.092427 0.465895 -1.313985
2009-03-02 08:19:33 51°18.84 2°51.526 -999 0.09253 0.466528 -1.313985
2009-03-02 08:20:33 51°19.033 2°51.429 -999 0.09253 0.466572 -1.313985
2009-03-02 08:21:33 51°19.222 2°51.333 -999 0.092633 0.467198 -1.313985
2009-03-02 08:22:33 51°19.41 2°51.236 -999 0.092633 0.467294 -1.279161
2009-03-02 08:23:33 51°19.598 2°51.132 -999 0.092736 0.467921 -1.313985
2009-03-02 08:24:33 51°19.787 2°51.026 -999 0.092736 0.46795 -1.313985
2009-03-02 08:25:33 51°19.974 2°50.897 -999 0.092839 0.468577 -1.279161
2009-03-02 08:26:33 51°20.162 2°50.768 -999 0.092839 0.468644 -1.279161
2009-03-02 08:27:33 51°20.33 2°50.573 -999 0.092839 0.468777 -1.279161
2009-03-02 08:28:33 51°20.477 2°50.33 -999 0.092942 0.469405 -1.279161
2009-03-02 08:29:33 51°20.62 2°50.082 -999 0.092942 0.469501 -1.313985
2009-03-02 08:30:33 51°20.767 2°49.843 -999 0.092942 0.469598 -1.313985
2009-03-02 08:31:33 51°20.922 2°49.618 -999 0.092942 0.46968 -1.279161
2009-03-02 08:32:33 51°21.084 2°49.405 -999 0.093045 0.470315 -1.279161
2009-03-02 08:33:33 51°21.246 2°49.188 -999 0.093045 0.47039 -1.279161
2009-03-02 08:34:33 51°21.415 2°48.984 -999 0.093045 0.470442 -1.279161
2009-03-02 08:35:33 51°21.589 2°48.787 -999 0.093045 0.470524 -1.313985
2009-03-02 08:36:33 51°21.769 2°48.607 -999 0.093045 0.470673 -1.313985
2009-03-02 08:37:33 51°21.952 2°48.44 -999 0.093045 0.470957 -1.279161
2009-03-02 08:38:33 51°22.147 2°48.346 -999 0.093045 0.471061 -1.313985
2009-03-02 08:39:33 51°22.345 2°48.329 -999 0.093045 0.471024 -1.279161
2009-03-02 08:40:33 51°22.54 2°48.366 -999 0.093045 0.471069 -1.279161
2009-03-02 08:41:33 51°22.735 2°48.411 -999 0.093045 0.471211 -1.279161
2009-03-02 08:42:33 51°22.934 2°48.434 -999 0.093045 0.471353 -1.279161
2009-03-02 08:43:33 51°23.133 2°48.435 -999 0.093045 0.471376 -1.313985
2009-03-02 08:44:33 51°23.331 2°48.429 -999 0.093045 0.471548 -1.279161
2009-03-02 08:45:33 51°23.529 2°48.443 -999 0.093045 0.471668 -1.279161
2009-03-02 08:46:33 51°23.726 2°48.466 -999 0.093045 0.47178 -1.313985
2009-03-02 08:47:33 51°23.922 2°48.482 -999 0.093045 0.471855 -1.279161
2009-03-02 08:48:33 51°24.117 2°48.496 -999 0.093045 0.471915 -1.279161
2009-03-02 08:49:33 51°24.316 2°48.488 -999 0.093045 0.471983 -1.313985
2009-03-02 08:50:33 51°24.496 2°48.478 -999 0.093148 0.472584 -1.279161
2009-03-02 08:51:33 51°24.657 2°48.481 -999 0.093148 0.472659 -1.313985
2009-03-02 08:52:33 51°24.775 2°48.477 -999 0.093148 0.472765 -1.279161
2009-03-02 08:53:33 51°24.876 2°48.47 -999 0.093148 0.472855 -1.279161
2009-03-02 08:54:33 51°24.96 2°48.48 -999 0.093148 0.472945 -1.313985
2009-03-02 08:55:33 51°25 2°48.507 -999 0.093148 0.473036 -1.279161
2009-03-02 08:56:33 51°25.007 2°48.521 -999 0.093148 0.473232 -1.313985
2009-03-02 08:57:33 51°25.009 2°48.532 -999 0.093148 0.473496 -1.279161
2009-03-02 08:58:33 51°25.01 2°48.536 -999 0.093148 0.47364 -1.279161
2009-03-02 08:59:33 51°25.01 2°48.533 -999 0.093148 0.473708 -1.279161
2009-03-02 09:00:33 51°25.008 2°48.524 -999 0.093045 0.473339 -1.279161
2009-03-02 09:01:33 51°25.003 2°48.514 -999 0.093045 0.47352 -1.313985
2009-03-02 09:02:33 51°24.998 2°48.502 -999 0.093045 0.473596 -1.279161
2009-03-02 09:03:33 51°24.991 2°48.49 -999 0.092942 0.473114 -1.279161
2009-03-02 09:04:33 51°24.98 2°48.478 -999 0.092839 0.472616 -1.279161
2009-03-02 09:05:33 51°24.969 2°48.462 -999 0.092839 0.472639 -1.279161
2009-03-02 09:06:33 51°24.957 2°48.446 -999 0.092839 0.472714 -1.279161
2009-03-02 09:07:33 51°24.945 2°48.429 -999 0.092839 0.472797 -1.279161
2009-03-02 09:08:33 51°24.981 2°48.471 -999 0.092839 0.472956 -1.313985
2009-03-02 09:09:33 51°25.087 2°48.568 -999 0.092942 0.473583 -1.279161
2009-03-02 09:10:33 51°25.213 2°48.691 -999 0.092942 0.473666 -1.279161
2009-03-02 09:11:33 51°25.355 2°48.834 -999 0.093045 0.474286 -1.313985
2009-03-02 09:12:33 51°25.51 2°48.982 -999 0.093148 0.474929 -1.279161
2009-03-02 09:13:33 51°25.688 2°49.102 -999 0.093045 0.474567 -1.279161
2009-03-02 09:14:33 51°25.869 2°49.208 -999 0.093148 0.475226 -1.279161
2009-03-02 09:15:33 51°26.05 2°49.314 -999 0.093251 0.475801 -1.279161
2009-03-02 09:16:33 51°26.231 2°49.425 -999 0.093251 0.475938 -1.279161
2009-03-02 09:17:33 51°26.412 2°49.538 -999 0.093353 0.476628 -1.279161
2009-03-02 09:18:33 51°26.591 2°49.649 -999 0.093353 0.476758 -1.279161
2009-03-02 09:19:33 51°26.767 2°49.762 -999 0.093456 0.477433 -1.279161
2009-03-02 09:20:33 51°26.946 2°49.873 -999 0.093456 0.477517 -1.279161
2009-03-02 09:21:33 51°27.124 2°49.988 -999 0.093559 0.478186 -1.279161
2009-03-02 09:22:33 51°27.301 2°50.1 -999 0.093559 0.478316 -1.279161
2009-03-02 09:23:33 51°27.477 2°50.212 -999 0.093662 0.479 -1.279161
2009-03-02 09:24:33 51°27.654 2°50.325 -999 0.093662 0.479147 -1.279161
2009-03-02 09:25:33 51°27.831 2°50.434 -999 0.093662 0.479286 -1.279161
2009-03-02 09:26:33 51°28.007 2°50.548 -999 0.093765 0.479932 -1.279161
2009-03-02 09:27:33 51°28.183 2°50.663 -999 0.093765 0.480033 -1.313985
2009-03-02 09:28:33 51°28.359 2°50.779 -999 0.093765 0.480172 -1.279161
2009-03-02 09:29:33 51°28.533 2°50.892 -999 0.093765 0.480249 -1.279161
2009-03-02 09:30:33 51°28.709 2°51 -999 0.093868 0.480904 -1.279161
2009-03-02 09:31:33 51°28.885 2°51.111 -999 0.093868 0.481036 -1.279161
2009-03-02 09:32:33 51°29.061 2°51.221 -999 0.093868 0.481223 -1.279161
2009-03-02 09:33:33 51°29.237 2°51.332 -999 0.093868 0.481378 -1.279161
2009-03-02 09:34:33 51°29.412 2°51.447 -999 0.093868 0.481479 -1.313985
2009-03-02 09:35:33 51°29.588 2°51.558 -999 0.093868 0.481588 -1.279161
2009-03-02 09:36:33 51°29.767 2°51.668 -999 0.093868 0.48172 -1.313985
2009-03-02 09:37:33 51°29.943 2°51.78 -999 0.093868 0.481845 -1.279161
2009-03-02 09:38:33 51°30.12 2°51.894 -999 0.093868 0.481993 -1.279161
2009-03-02 09:39:33 51°30.295 2°52.009 -999 0.093868 0.482149 -1.279161
2009-03-02 09:40:33 51°30.472 2°52.124 -999 0.093765 0.481749 -1.279161
2009-03-02 09:41:33 51°30.649 2°52.243 -999 0.093765 0.481905 -1.279161
2009-03-02 09:42:33 51°30.824 2°52.362 -999 0.093765 0.48203 -1.313985
2009-03-02 09:43:33 51°31 2°52.479 -999 0.093765 0.482186 -1.279161
2009-03-02 09:44:33 51°31.176 2°52.599 -999 0.093662 0.481746 -1.279161
2009-03-02 09:45:33 51°31.352 2°52.718 -999 0.093662 0.481887 -1.279161
2009-03-02 09:46:33 51°31.527 2°52.839 -999 0.093559 0.481471 -1.279161
2009-03-02 09:47:33 51°31.705 2°52.957 -999 0.093559 0.481611 -1.279161
2009-03-02 09:48:33 51°31.881 2°53.077 -999 0.093457 0.481163 -1.279161
2009-03-02 09:49:33 51°32.057 2°53.195 -999 0.093457 0.481273 -1.279161
2009-03-02 09:50:33 51°32.229 2°53.31 -999 0.093354 0.480856 -1.279161
2009-03-02 09:51:33 51°32.402 2°53.419 -999 0.093354 0.480997 -1.279161
2009-03-02 09:52:33 51°32.575 2°53.528 -999 0.093251 0.480579 -1.279161
2009-03-02 09:53:33 51°32.746 2°53.638 -999 0.093148 0.480154 -1.279161
2009-03-02 09:54:33 51°32.917 2°53.747 -999 0.093148 0.480264 -1.279161
2009-03-02 09:55:33 51°33.086 2°53.859 -999 0.093148 0.480381 -1.279161
2009-03-02 09:56:33 51°33.256 2°53.971 -999 0.093045 0.479948 -1.279161
2009-03-02 09:57:33 51°33.419 2°54.101 -999 0.093045 0.480057 -1.279161
2009-03-02 09:58:33 51°33.551 2°54.3 -999 0.093045 0.480206 -1.279161
2009-03-02 09:59:33 51°33.676 2°54.515 -999 0.092942 0.479764 -1.279161
2009-03-02 10:00:33 51°33.804 2°54.726 -999 0.092942 0.47996 -1.279161
2009-03-02 10:01:33 51°33.932 2°54.93 -999 0.092839 0.479581 -1.279161
2009-03-02 10:02:33 51°34.059 2°55.135 -999 0.092839 0.479753 -1.279161
2009-03-02 10:03:33 51°34.182 2°55.345 -999 0.092736 0.479373 -1.279161
2009-03-02 10:04:33 51°34.25 2°55.607 -999 0.092736 0.479538 -1.279161
2009-03-02 10:05:33 51°34.262 2°55.903 -999 0.092736 0.479702 -1.279161
2009-03-02 10:06:33 51°34.273 2°56.2 -999 0.092633 0.479307 -1.279161
2009-03-02 10:07:33 51°34.286 2°56.495 -999 0.092633 0.47955 -1.279161
2009-03-02 10:08:33 51°34.329 2°56.777 -999 0.09253 0.479555 -1.279161
2009-03-02 10:09:33 51°34.393 2°57.053 -999 0.092633 0.479919 -1.279161
2009-03-02 10:10:33 51°34.449 2°57.335 -999 0.09253 0.479515 -1.279161
2009-03-02 10:11:33 51°34.5 2°57.619 -999 0.092633 0.480509 -1.244337
2009-03-02 10:12:33 51°34.549 2°57.903 -999 0.092427 0.479481 -1.279161
2009-03-02 10:13:33 51°34.6 2°58.189 -999 0.092427 0.479402 -1.279161
2009-03-02 10:14:33 51°34.651 2°58.475 -999 0.092325 0.478856 -1.279161
2009-03-02 10:15:33 51°34.701 2°58.763 -999 0.092325 0.479006 -1.279161
2009-03-02 10:16:33 51°34.751 2°59.05 -999 0.092222 0.478578 -1.279161
2009-03-02 10:17:33 51°34.803 2°59.33 -999 0.092222 0.478735 -1.279161
2009-03-02 10:18:33 51°34.846 2°59.579 -999 0.092119 0.478236 -1.279161
2009-03-02 10:19:33 51°34.89 2°59.822 -999 0.092222 0.478908 -1.279161
2009-03-02 10:20:33 51°34.929 3°0.068 -999 0.092222 0.479034 -1.279161
2009-03-02 10:21:33 51°34.956 3°0.253 -999 0.092119 0.47855 -1.279161
2009-03-02 10:22:33 51°34.966 3°0.34 -999 0.092119 0.47859 -1.244337
2009-03-02 10:23:33 51°34.976 3°0.375 -999 0.092119 0.478708 -1.279161
2009-03-02 10:24:33 51°34.994 3°0.423 -999 0.092119 0.478802 -1.279161
2009-03-02 10:25:33 51°34.994 3°0.477 -999 0.092119 0.478889 -1.279161
2009-03-02 10:26:33 51°34.989 3°0.495 -999 0.092016 0.478413 -1.279161
2009-03-02 10:27:33 51°34.983 3°0.5 -999 0.092016 0.478547 -1.279161
2009-03-02 10:28:33 51°34.97 3°0.494 -999 0.091913 0.47818 -1.279161
2009-03-02 10:29:33 51°34.953 3°0.481 -999 0.091913 0.478362 -1.279161
2009-03-02 10:30:33 51°34.932 3°0.467 -999 0.09181 0.477972 -1.244337
2009-03-02 10:31:33 51°34.91 3°0.452 -999 0.09181 0.478035 -1.313985
2009-03-02 10:32:33 51°34.887 3°0.436 -999 0.09181 0.478106 -1.313985
2009-03-02 10:33:33 51°34.868 3°0.422 -999 0.09181 0.478256 -1.279161
2009-03-02 10:34:33 51°34.89 3°0.386 -999 0.091707 0.47781 -1.279161
2009-03-02 10:35:33 51°34.94 3°0.208 -999 0.091707 0.478086 -1.279161
2009-03-02 10:36:33 51°35.029 2°59.952 -999 0.091604 0.47764 -1.279161
2009-03-02 10:37:33 51°35.136 2°59.674 -999 0.091604 0.477798 -1.279161
2009-03-02 10:38:33 51°35.247 2°59.397 -999 0.091604 0.477909 -1.279161
2009-03-02 10:39:33 51°35.361 2°59.123 -999 0.091604 0.478051 -1.279161
2009-03-02 10:40:33 51°35.483 2°58.862 -999 0.091501 0.477628 -1.279161
2009-03-02 10:41:33 51°35.604 2°58.596 -999 0.091501 0.477771 -1.279161
2009-03-02 10:42:33 51°35.718 2°58.323 -999 0.091501 0.477874 -1.279161
2009-03-02 10:43:33 51°35.833 2°58.052 -999 0.091501 0.477969 -1.279161
2009-03-02 10:44:33 51°35.949 2°57.781 -999 0.091501 0.478087 -1.279161
2009-03-02 10:45:33 51°36.068 2°57.511 -999 0.091501 0.478222 -1.279161
2009-03-02 10:46:33 51°36.184 2°57.238 -999 0.091501 0.478357 -1.313985
2009-03-02 10:47:33 51°36.299 2°56.965 -999 0.091501 0.478484 -1.279161
2009-03-02 10:48:33 51°36.417 2°56.694 -999 0.091501 0.478643 -1.279161
2009-03-02 10:49:33 51°36.537 2°56.427 -999 0.091501 0.47877 -1.279161
2009-03-02 10:50:33 51°36.666 2°56.172 -999 0.091501 0.478889 -1.279161
2009-03-02 10:51:33 51°36.795 2°55.919 -999 0.091501 0.479008 -1.279161
2009-03-02 10:52:33 51°36.921 2°55.667 -999 0.091604 0.47971 -1.244337
2009-03-02 10:53:33 51°37.047 2°55.42 -999 0.091604 0.479822 -1.279161
2009-03-02 10:54:33 51°37.168 2°55.168 -999 0.091604 0.479918 -1.279161
2009-03-02 10:55:33 51°37.291 2°54.92 -999 0.091604 0.480006 -1.279161
2009-03-02 10:56:33 51°37.416 2°54.672 -999 0.091604 0.480157 -1.279161
2009-03-02 10:57:33 51°37.542 2°54.423 -999 0.091707 0.480877 -1.279161
2009-03-02 10:58:33 51°37.671 2°54.178 -999 0.091707 0.480989 -1.279161
2009-03-02 10:59:33 51°37.797 2°53.928 -999 0.091707 0.481101 -1.279161
2009-03-02 11:00:33 51°37.926 2°53.681 -999 0.091707 0.481165 -1.279161
2009-03-02 11:01:33 51°38.054 2°53.433 -999 0.091707 0.481302 -1.279161
2009-03-02 11:02:33 51°38.182 2°53.187 -999 0.091707 0.481446 -1.279161
2009-03-02 11:03:33 51°38.308 2°52.937 -999 0.091707 0.481591 -1.279161
2009-03-02 11:04:33 51°38.436 2°52.686 -999 0.091707 0.481703 -1.279161
2009-03-02 11:05:33 51°38.561 2°52.433 -999 0.091707 0.481751 -1.279161
2009-03-02 11:06:33 51°38.684 2°52.177 -999 0.091707 0.48188 -1.279161
2009-03-02 11:07:33 51°38.812 2°51.927 -999 0.091707 0.482009 -1.279161
2009-03-02 11:08:33 51°38.936 2°51.671 -999 0.091707 0.482186 -1.279161
2009-03-02 11:09:33 51°39.059 2°51.421 -999 0.091604 0.481762 -1.279161
2009-03-02 11:10:33 51°39.188 2°51.176 -999 0.091604 0.481818 -1.279161
2009-03-02 11:11:33 51°39.315 2°50.927 -999 0.091604 0.481923 -1.279161
2009-03-02 11:12:33 51°39.437 2°50.674 -999 0.091604 0.48206 -1.279161
2009-03-02 11:13:33 51°39.562 2°50.432 -999 0.091604 0.482157 -1.279161
2009-03-02 11:14:33 51°39.687 2°50.189 -999 0.091604 0.48227 -1.279161
2009-03-02 11:15:33 51°39.812 2°49.943 -999 0.091604 0.482366 -1.279161
2009-03-02 11:16:33 51°39.934 2°49.695 -999 0.091604 0.48252 -1.279161
2009-03-02 11:17:33 51°40.057 2°49.447 -999 0.091604 0.482641 -1.279161
2009-03-02 11:18:33 51°40.18 2°49.2 -999 0.091604 0.48273 -1.279161
2009-03-02 11:19:33 51°40.304 2°48.956 -999 0.091604 0.482868 -1.279161
2009-03-02 11:20:33 51°40.44 2°48.727 -999 0.091501 0.482426 -1.279161
2009-03-02 11:21:33 51°40.578 2°48.497 -999 0.091501 0.482572 -1.279161
2009-03-02 11:22:33 51°40.716 2°48.264 -999 0.091501 0.48271 -1.279161
2009-03-02 11:23:33 51°40.854 2°48.033 -999 0.091502 0.482823 -1.279161
2009-03-02 11:24:33 51°40.994 2°47.808 -999 0.091399 0.482373 -1.279161
2009-03-02 11:25:33 51°41.131 2°47.577 -999 0.091399 0.482495 -1.279161
2009-03-02 11:26:33 51°41.271 2°47.351 -999 0.091399 0.482617 -1.279161
2009-03-02 11:27:33 51°41.41 2°47.123 -999 0.091399 0.482754 -1.279161
2009-03-02 11:28:33 51°41.545 2°46.892 -999 0.091399 0.482868 -1.279161
2009-03-02 11:29:33 51°41.681 2°46.662 -999 0.091399 0.482982 -1.279161
2009-03-02 11:30:33 51°41.815 2°46.43 -999 0.091399 0.483112 -1.279161
2009-03-02 11:31:33 51°41.949 2°46.204 -999 0.091296 0.482678 -1.279161
2009-03-02 11:32:33 51°42.086 2°45.98 -999 0.091296 0.4828 -1.313985
2009-03-02 11:33:33 51°42.222 2°45.756 -999 0.091296 0.482938 -1.279161
2009-03-02 11:34:33 51°42.359 2°45.533 -999 0.091296 0.483044 -1.279161
2009-03-02 11:35:33 51°42.495 2°45.307 -999 0.091193 0.482593 -1.279161
2009-03-02 11:36:33 51°42.63 2°45.084 -999 0.091193 0.482715 -1.279161
2009-03-02 11:37:33 51°42.765 2°44.859 -999 0.091193 0.482829 -1.279161
2009-03-02 11:38:33 51°42.901 2°44.635 -999 0.09109 0.482377 -1.279161
2009-03-02 11:39:33 51°43.035 2°44.408 -999 0.09109 0.482483 -1.279161
2009-03-02 11:40:33 51°43.171 2°44.184 -999 0.09109 0.482581 -1.279161
2009-03-02 11:41:33 51°43.305 2°43.958 -999 0.09109 0.482687 -1.279161
2009-03-02 11:42:33 51°43.44 2°43.733 -999 0.090987 0.482227 -1.279161
2009-03-02 11:43:33 51°43.576 2°43.512 -999 0.090987 0.482317 -1.279161
2009-03-02 11:44:33 51°43.713 2°43.289 -999 0.090987 0.482415 -1.279161
2009-03-02 11:45:33 51°43.848 2°43.064 -999 0.090884 0.481963 -1.279161
2009-03-02 11:46:33 51°43.982 2°42.837 -999 0.090884 0.482069 -1.313985
2009-03-02 11:47:33 51°44.113 2°42.606 -999 0.090884 0.482191 -1.279161
2009-03-02 11:48:33 51°44.255 2°42.396 -999 0.090781 0.48169 -1.279161
2009-03-02 11:49:33 51°44.414 2°42.236 -999 0.090781 0.481804 -1.279161
2009-03-02 11:50:33 51°44.577 2°42.093 -999 0.090781 0.481902 -1.279161
2009-03-02 11:51:33 51°44.738 2°41.946 -999 0.090781 0.48204 -1.279161
2009-03-02 11:52:33 51°44.886 2°41.844 -999 0.090678 0.481539 -1.279161
2009-03-02 11:53:33 51°44.975 2°41.942 -999 0.090678 0.481563 -1.279161
2009-03-02 11:54:33 51°45.016 2°41.979 -999 0.090678 0.481743 -1.279161
2009-03-02 11:55:33 51°45.017 2°41.982 -999 0.090575 0.481339 -1.279161
2009-03-02 11:56:33 51°45.006 2°41.979 -999 0.090575 0.481282 -1.279161
2009-03-02 11:57:33 51°44.986 2°41.969 -999 0.090472 0.480804 -1.279161
2009-03-02 11:58:33 51°44.961 2°41.957 -999 0.090472 0.480943 -1.244337
2009-03-02 11:59:33 51°44.932 2°41.944 -999 0.090472 0.481024 -1.244337
2009-03-02 12:00:33 51°44.903 2°41.93 -999 0.090472 0.481106 -1.244337
2009-03-02 12:01:33 51°44.874 2°41.918 -999 0.09037 0.480628 -1.279161
2009-03-02 12:02:33 51°44.847 2°41.906 -999 0.09037 0.480767 -1.279161
2009-03-02 12:03:33 51°44.823 2°41.898 -999 0.09037 0.480873 -1.279161
2009-03-02 12:04:33 51°44.831 2°41.887 -999 0.09037 0.480799 -1.209513
2009-03-02 12:05:33 51°44.821 2°41.78 -999 0.090267 0.480305 -1.244337
2009-03-02 12:06:33 51°44.733 2°41.638 -999 0.090267 0.480623 -1.244337
2009-03-02 12:07:33 51°44.616 2°41.415 -999 0.090164 0.480284 -1.10504
2009-03-02 12:08:33 51°44.472 2°41.141 -999 0.090061 0.479984 -1.139864
2009-03-02 12:09:33 51°44.326 2°40.861 -999 0.090061 0.480074 -1.139864
2009-03-02 12:10:33 51°44.159 2°40.611 -999 0.089958 0.479611 -1.139864
2009-03-02 12:11:33 51°43.981 2°40.379 -999 0.089958 0.479693 -1.174688
2009-03-02 12:12:33 51°43.81 2°40.137 -999 0.089855 0.479206 -1.174688
2009-03-02 12:13:33 51°43.639 2°39.893 -999 0.089855 0.479312 -1.174688
2009-03-02 12:14:33 51°43.473 2°39.639 -999 0.089855 0.479434 -1.174688
2009-03-02 12:15:33 51°43.311 2°39.38 -999 0.089752 0.478897 -1.174688
2009-03-02 12:16:33 51°43.149 2°39.122 -999 0.089752 0.479004 -1.174688
2009-03-02 12:17:33 51°42.99 2°38.864 -999 0.089752 0.47902 -1.174688
2009-03-02 12:18:33 51°42.828 2°38.606 -999 0.089752 0.479085 -1.174688
2009-03-02 12:19:33 51°42.669 2°38.349 -999 0.089752 0.479216 -1.209513
2009-03-02 12:20:33 51°42.512 2°38.086 -999 0.089649 0.478777 -1.174688
2009-03-02 12:21:33 51°42.331 2°37.875 -999 0.089649 0.478769 -1.209513
2009-03-02 12:22:33 51°42.125 2°37.717 -999 0.089649 0.478851 -1.209513
2009-03-02 12:23:33 51°41.921 2°37.557 -999 0.089649 0.479014 -1.209513
2009-03-02 12:24:33 51°41.715 2°37.395 -999 0.089649 0.479096 -1.209513
2009-03-02 12:25:33 51°41.531 2°37.184 -999 0.089649 0.479219 -1.209513
2009-03-02 12:26:33 51°41.378 2°36.922 -999 0.089649 0.479342 -1.209513
2009-03-02 12:27:33 51°41.225 2°36.653 -999 0.089649 0.479498 -1.209513
2009-03-02 12:28:33 51°41.068 2°36.388 -999 0.089649 0.479555 -1.209513
2009-03-02 12:29:33 51°40.914 2°36.12 -999 0.089546 0.479033 -1.209513
2009-03-02 12:30:33 51°40.758 2°35.854 -999 0.089546 0.479091 -1.209513
2009-03-02 12:31:33 51°40.602 2°35.589 -999 0.089546 0.479148 -1.209513
2009-03-02 12:32:33 51°40.445 2°35.326 -999 0.089546 0.479246 -1.209513
2009-03-02 12:33:34 51°40.286 2°35.06 -999 0.089443 0.47879 -1.209513
2009-03-02 12:34:34 51°40.132 2°34.797 -999 0.089443 0.478913 -1.209513
2009-03-02 12:35:34 51°39.99 2°34.528 -999 0.089443 0.479028 -1.209513
2009-03-02 12:36:34 51°39.863 2°34.254 -999 0.089443 0.479143 -1.209513
2009-03-02 12:37:34 51°39.734 2°33.965 -999 0.089443 0.479241 -1.209513
2009-03-02 12:38:34 51°39.61 2°33.672 -999 0.089341 0.478809 -1.209513
2009-03-02 12:39:34 51°39.488 2°33.381 -999 0.089341 0.478916 -1.209513
2009-03-02 12:40:34 51°39.381 2°33.111 -999 0.089341 0.478965 -1.209513
2009-03-02 12:41:34 51°39.284 2°32.848 -999 0.089238 0.478483 -1.209513
2009-03-02 12:42:34 51°39.197 2°32.622 -999 0.089238 0.478573 -1.209513
2009-03-02 12:43:34 51°39.122 2°32.43 -999 0.089135 0.478091 -1.209513
2009-03-02 12:44:34 51°39.065 2°32.307 -999 0.089135 0.47819 -1.209513
2009-03-02 12:45:34 51°39.031 2°32.265 -999 0.089135 0.478272 -1.209513
2009-03-02 12:46:34 51°39.02 2°32.274 -999 0.089032 0.477781 -1.209513
2009-03-02 12:47:34 51°39.008 2°32.275 -999 0.088929 0.477282 -1.244337
2009-03-02 12:48:34 51°38.995 2°32.271 -999 0.088929 0.477348 -1.244337
2009-03-02 12:49:34 51°38.981 2°32.263 -999 0.088826 0.476898 -1.244337
2009-03-02 12:50:34 51°38.966 2°32.253 -999 0.088826 0.477021 -1.209513
2009-03-02 12:51:34 51°38.95 2°32.243 -999 0.088723 0.476546 -1.244337
2009-03-02 12:52:34 51°38.945 2°32.231 -999 0.088723 0.476677 -1.244337
2009-03-02 12:53:34 51°38.965 2°32.211 -999 0.08862 0.476202 -1.244337
2009-03-02 12:54:34 51°38.995 2°32.18 -999 0.088517 0.47567 -1.244337
2009-03-02 12:55:34 51°39 2°32.155 -999 0.088517 0.475686 -1.244337
2009-03-02 12:56:34 51°38.985 2°32.205 -999 0.088414 0.475129 -1.209513
2009-03-02 12:57:34 51°38.998 2°32.25 -999 0.088414 0.475309 -1.209513
2009-03-02 12:58:34 51°39.012 2°32.284 -999 0.088311 0.474792 -1.244337
2009-03-02 12:59:34 51°39.016 2°32.301 -999 0.088311 0.47485 -1.244337
2009-03-02 13:00:34 51°39.012 2°32.307 -999 0.088209 0.474521 -1.244337
2009-03-02 13:01:34 51°39.002 2°32.309 -999 0.088209 0.474668 -1.244337
2009-03-02 13:02:34 51°38.997 2°32.309 -999 0.088209 0.474709 -1.244337
2009-03-02 13:03:34 51°39.003 2°32.291 -999 0.088106 0.474168 -1.244337
2009-03-02 13:04:34 51°39.027 2°32.262 -999 0.088106 0.474274 -1.244337
2009-03-02 13:05:34 51°39.037 2°32.252 -999 0.088106 0.474438 -1.244337
2009-03-02 13:06:34 51°39.037 2°32.245 -999 0.088106 0.474585 -1.244337
2009-03-02 13:07:34 51°39.032 2°32.238 -999 0.088106 0.474643 -1.244337
2009-03-02 13:08:34 51°39.036 2°32.24 -999 0.088106 0.474717 -1.244337
2009-03-02 13:09:34 51°39.042 2°32.281 -999 0.088106 0.474831 -1.244337
2009-03-02 13:10:34 51°39.028 2°32.329 -999 0.088106 0.47507 -1.244337
2009-03-02 13:11:34 51°39.01 2°32.328 -999 0.088106 0.475209 -1.244337
2009-03-02 13:12:34 51°38.991 2°32.33 -999 0.088106 0.475242 -1.244337
2009-03-02 13:13:34 51°38.974 2°32.335 -999 0.088106 0.475292 -1.244337
2009-03-02 13:14:34 51°38.956 2°32.343 -999 0.088106 0.475316 -1.244337
2009-03-02 13:15:34 51°38.94 2°32.349 -999 0.088106 0.475366 -1.244337
2009-03-02 13:16:34 51°38.925 2°32.355 -999 0.088106 0.47544 -1.244337
2009-03-02 13:17:33 51°38.916 2°32.362 -999 0.088003 0.47493 -1.244337
2009-03-02 13:18:34 51°38.942 2°32.33 -999 0.088003 0.47488 -1.244337
2009-03-02 13:19:33 51°39.009 2°32.128 -999 0.088003 0.475004 -1.244337
2009-03-02 13:20:33 51°39.092 2°31.847 -999 0.0879 0.474518 -1.244337
2009-03-02 13:21:34 51°39.172 2°31.554 -999 0.0879 0.4746 -1.244337
2009-03-02 13:22:33 51°39.252 2°31.271 -999 0.0879 0.474567 -1.244337
2009-03-02 13:23:34 51°39.34 2°30.984 -999 0.0879 0.474683 -1.244337
2009-03-02 13:24:33 51°39.43 2°30.711 -999 0.0879 0.474806 -1.244337
2009-03-02 13:25:34 51°39.523 2°30.428 -999 0.0879 0.47493 -1.244337
2009-03-02 13:26:33 51°39.612 2°30.153 -999 0.0879 0.474979 -1.244337
2009-03-02 13:27:33 51°39.703 2°29.873 -999 0.087797 0.474427 -1.244337
2009-03-02 13:28:34 51°39.796 2°29.59 -999 0.087797 0.474501 -1.244337
2009-03-02 13:29:33 51°39.885 2°29.316 -999 0.087797 0.474575 -1.279161
2009-03-02 13:30:34 51°39.976 2°29.032 -999 0.087797 0.474674 -1.279161
2009-03-02 13:31:33 51°40.056 2°28.748 -999 0.087797 0.474756 -1.244337
2009-03-02 13:32:34 51°40.143 2°28.457 -999 0.087797 0.474789 -1.244337
2009-03-02 13:33:33 51°40.227 2°28.175 -999 0.087797 0.474864 -1.244337
2009-03-02 13:34:34 51°40.314 2°27.885 -999 0.087797 0.474971 -1.279161
2009-03-02 13:35:33 51°40.398 2°27.605 -999 0.087797 0.475062 -1.244337
2009-03-02 13:36:33 51°40.485 2°27.321 -999 0.087797 0.47512 -1.279161
2009-03-02 13:37:34 51°40.566 2°27.026 -999 0.087797 0.475169 -1.244337
2009-03-02 13:38:33 51°40.641 2°26.737 -999 0.087797 0.475235 -1.279161
2009-03-02 13:39:34 51°40.717 2°26.436 -999 0.087797 0.475301 -1.244337
2009-03-02 13:40:33 51°40.785 2°26.145 -999 0.087797 0.475401 -1.244337
2009-03-02 13:41:34 51°40.848 2°25.866 -999 0.087797 0.475508 -1.279161
2009-03-02 13:42:33 51°40.908 2°25.608 -999 0.087797 0.475591 -1.279161
2009-03-02 13:43:34 51°40.957 2°25.383 -999 0.087797 0.47569 -1.279161
2009-03-02 13:44:33 51°40.982 2°25.245 -999 0.0879 0.476377 -1.244337
2009-03-02 13:45:33 51°40.991 2°25.166 -999 0.087797 0.475906 -1.244337
2009-03-02 13:46:34 51°41.001 2°25.144 -999 0.087797 0.475922 -1.279161
2009-03-02 13:47:33 51°41.006 2°25.137 -999 0.087797 0.475964 -1.244337
2009-03-02 13:48:34 51°41.006 2°25.137 -999 0.087797 0.476022 -1.244337
2009-03-02 13:49:33 51°41.002 2°25.144 -999 0.087797 0.47613 -1.279161
2009-03-02 13:50:34 51°40.997 2°25.157 -999 0.087797 0.476238 -1.279161
2009-03-02 13:51:33 51°40.99 2°25.171 -999 0.087797 0.476354 -1.279161
2009-03-02 13:52:34 51°40.98 2°25.187 -999 0.087797 0.476404 -1.279161
2009-03-02 13:53:34 51°40.969 2°25.203 -999 0.087797 0.47647 -1.279161
2009-03-02 13:54:33 51°40.973 2°25.218 -999 0.087797 0.476545 -1.279161
2009-03-02 13:55:34 51°41.052 2°25.194 -999 0.087694 0.475949 -1.279161
2009-03-02 13:56:33 51°41.185 2°25.163 -999 0.087694 0.476007 -1.279161
2009-03-02 13:57:34 51°41.298 2°25.102 -999 0.087694 0.476057 -1.279161
2009-03-02 13:58:33 51°41.366 2°25.072 -999 0.087694 0.47614 -1.279161
2009-03-02 13:59:34 51°41.394 2°25.055 -999 0.087694 0.476265 -1.279161
2009-03-02 14:00:33 51°41.401 2°25.048 -999 0.087694 0.476365 -1.279161
2009-03-02 14:01:34 51°41.393 2°25.067 -999 0.087694 0.476473 -1.279161
2009-03-02 14:02:34 51°41.379 2°25.093 -999 0.087694 0.476523 -1.279161
2009-03-02 14:03:33 51°41.369 2°25.116 -999 0.087694 0.476573 -1.279161
2009-03-02 14:04:34 51°41.381 2°25.113 -999 0.087694 0.476632 -1.279161
2009-03-02 14:05:33 51°41.388 2°25.079 -999 0.087694 0.476698 -1.279161
2009-03-02 14:06:34 51°41.381 2°25.056 -999 0.087694 0.476807 -1.279161
2009-03-02 14:07:33 51°41.374 2°25.048 -999 0.087694 0.476873 -1.279161
2009-03-02 14:08:34 51°41.37 2°25.061 -999 0.087694 0.47694 -1.279161
2009-03-02 14:09:34 51°41.365 2°25.078 -999 0.087694 0.476999 -1.279161
2009-03-02 14:10:34 51°41.36 2°25.083 -999 0.087694 0.477099 -1.279161
2009-03-02 14:11:34 51°41.352 2°25.064 -999 0.087694 0.477224 -1.279161
2009-03-02 14:12:34 51°41.346 2°25.055 -999 0.087591 0.476752 -1.279161
2009-03-02 14:13:34 51°41.343 2°25.063 -999 0.087591 0.476802 -1.279161
2009-03-02 14:14:34 51°41.341 2°25.075 -999 0.087488 0.476404 -1.279161
2009-03-02 14:15:34 51°41.34 2°25.092 -999 0.087488 0.476555 -1.279161
2009-03-02 14:16:33 51°41.346 2°25.1 -999 0.087488 0.476647 -1.279161
2009-03-02 14:17:34 51°41.364 2°25.081 -999 0.087385 0.47614 -1.279161
2009-03-02 14:18:34 51°41.373 2°25.07 -999 0.087385 0.476216 -1.279161
2009-03-02 14:19:34 51°41.381 2°25.07 -999 0.087385 0.476241 -1.279161
2009-03-02 14:20:34 51°41.388 2°25.076 -999 0.087282 0.475709 -1.279161
2009-03-02 14:21:33 51°41.394 2°25.086 -999 0.087282 0.475759 -1.279161
2009-03-02 14:22:34 51°41.403 2°25.098 -999 0.087282 0.475826 -1.279161
2009-03-02 14:23:33 51°41.416 2°25.093 -999 0.087282 0.475834 -1.279161
2009-03-02 14:24:34 51°41.404 2°25.044 -999 0.087282 0.475809 -1.279161
2009-03-02 14:25:34 51°41.312 2°25.027 -999 0.08718 0.475344 -1.279161
2009-03-02 14:26:34 51°41.165 2°24.931 -999 0.08718 0.475428 -1.279161
2009-03-02 14:27:34 51°40.971 2°24.906 -999 0.08718 0.475611 -1.279161
2009-03-02 14:28:34 51°40.771 2°24.927 -999 0.08718 0.475636 -1.279161
2009-03-02 14:29:34 51°40.572 2°24.948 -999 0.08718 0.47572 -1.279161
2009-03-02 14:30:34 51°40.376 2°25.006 -999 0.087077 0.475213 -1.279161
2009-03-02 14:31:34 51°40.188 2°25.125 -999 0.087077 0.475321 -1.279161
2009-03-02 14:32:33 51°40.017 2°25.291 -999 0.087077 0.475422 -1.313985
2009-03-02 14:33:34 51°39.838 2°25.462 -999 0.087077 0.475505 -1.279161
2009-03-02 14:34:34 51°39.659 2°25.623 -999 0.087077 0.475581 -1.313985
2009-03-02 14:35:34 51°39.491 2°25.812 -999 0.087077 0.475656 -1.279161
2009-03-02 14:36:34 51°39.331 2°26.023 -999 0.087077 0.475748 -1.279161
2009-03-02 14:37:33 51°39.176 2°26.232 -999 0.086974 0.475215 -1.279161
2009-03-02 14:38:34 51°39.015 2°26.448 -999 0.086974 0.475249 -1.279161
2009-03-02 14:39:34 51°38.855 2°26.657 -999 0.086974 0.475307 -1.313985
2009-03-02 14:40:34 51°38.694 2°26.864 -999 0.086974 0.475341 -1.279161
2009-03-02 14:41:34 51°38.538 2°27.079 -999 0.086871 0.474799 -1.313985
2009-03-02 14:42:34 51°38.382 2°27.29 -999 0.086871 0.474858 -1.279161
2009-03-02 14:43:34 51°38.224 2°27.503 -999 0.086871 0.474891 -1.313985
2009-03-02 14:44:34 51°38.067 2°27.716 -999 0.086871 0.474958 -1.313985
2009-03-02 14:45:34 51°37.902 2°27.905 -999 0.086871 0.475034 -1.279161
2009-03-02 14:46:34 51°37.721 2°28.043 -999 0.086768 0.4745 -1.279161
2009-03-02 14:47:34 51°37.535 2°28.153 -999 0.086768 0.474542 -1.313985
2009-03-02 14:48:34 51°37.342 2°28.231 -999 0.086768 0.474592 -1.313985
2009-03-02 14:49:34 51°37.151 2°28.249 -999 0.086768 0.474659 -1.313985
2009-03-02 14:50:34 51°36.958 2°28.238 -999 0.086665 0.474125 -1.313985
2009-03-02 14:51:34 51°36.774 2°28.17 -999 0.086665 0.474184 -1.313985
2009-03-02 14:52:34 51°36.604 2°28.052 -999 0.086665 0.474234 -1.313985
2009-03-02 14:53:34 51°36.437 2°27.925 -999 0.086665 0.474293 -1.313985
2009-03-02 14:54:34 51°36.271 2°27.798 -999 0.086562 0.4738 -1.279161
2009-03-02 14:55:34 51°36.104 2°27.672 -999 0.086562 0.473867 -1.313985
2009-03-02 14:56:34 51°35.936 2°27.551 -999 0.086562 0.473926 -1.313985
2009-03-02 14:57:34 51°35.766 2°27.432 -999 0.086562 0.473993 -1.313985
2009-03-02 14:58:34 51°35.597 2°27.309 -999 0.086562 0.474052 -1.313985
2009-03-02 14:59:34 51°35.43 2°27.191 -999 0.086562 0.474102 -1.313985
2009-03-02 15:00:34 51°35.259 2°27.072 -999 0.086562 0.474161 -1.313985
2009-03-02 15:01:34 51°35.09 2°26.954 -999 0.086459 0.473643 -1.313985
2009-03-02 15:02:34 51°34.919 2°26.836 -999 0.086459 0.473693 -1.313985
2009-03-02 15:03:34 51°34.749 2°26.719 -999 0.086459 0.473727 -1.313985
2009-03-02 15:04:34 51°34.58 2°26.6 -999 0.086459 0.473777 -1.313985
2009-03-02 15:05:34 51°34.411 2°26.479 -999 0.086459 0.473819 -1.313985
2009-03-02 15:06:34 51°34.242 2°26.356 -999 0.086459 0.473861 -1.313985
2009-03-02 15:07:34 51°34.073 2°26.233 -999 0.086459 0.473919 -1.313985
2009-03-02 15:08:34 51°33.904 2°26.107 -999 0.086459 0.473986 -1.313985
2009-03-02 15:09:34 51°33.733 2°25.987 -999 0.086459 0.474045 -1.313985
2009-03-02 15:10:34 51°33.563 2°25.869 -999 0.086459 0.474112 -1.313985
2009-03-02 15:11:34 51°33.393 2°25.747 -999 0.086459 0.474171 -1.313985
2009-03-02 15:12:34 51°33.221 2°25.627 -999 0.086459 0.47423 -1.313985
2009-03-02 15:13:33 51°33.054 2°25.506 -999 0.086459 0.47428 -1.313985
2009-03-02 15:14:34 51°32.882 2°25.377 -999 0.086356 0.473728 -1.313985
2009-03-02 15:15:34 51°32.713 2°25.254 -999 0.086356 0.473778 -1.313985
2009-03-02 15:16:34 51°32.544 2°25.137 -999 0.086356 0.473862 -1.313985
2009-03-02 15:17:34 51°32.376 2°25.022 -999 0.086356 0.474005 -1.313985
2009-03-02 15:18:34 51°32.207 2°24.909 -999 0.086356 0.474056 -1.313985
2009-03-02 15:19:34 51°32.043 2°24.791 -999 0.086356 0.474089 -1.313985
2009-03-02 15:20:34 51°31.879 2°24.675 -999 0.086253 0.473537 -1.313985
2009-03-02 15:21:34 51°31.714 2°24.561 -999 0.086253 0.473579 -1.313985
2009-03-02 15:22:34 51°31.55 2°24.448 -999 0.086253 0.473629 -1.313985
2009-03-02 15:23:34 51°31.384 2°24.339 -999 0.086151 0.473093 -1.313985
2009-03-02 15:24:34 51°31.22 2°24.228 -999 0.086151 0.473152 -1.313985
2009-03-02 15:25:34 51°31.059 2°24.11 -999 0.086151 0.473211 -1.313985
2009-03-02 15:26:34 51°30.896 2°23.998 -999 0.086151 0.473278 -1.313985
2009-03-02 15:27:34 51°30.734 2°23.888 -999 0.086151 0.473337 -1.313985
2009-03-02 15:28:34 51°30.569 2°23.782 -999 0.086048 0.472809 -1.313985
2009-03-02 15:29:34 51°30.406 2°23.679 -999 0.086048 0.472868 -1.313985
2009-03-02 15:30:34 51°30.242 2°23.575 -999 0.086048 0.472918 -1.313985
2009-03-02 15:31:34 51°30.079 2°23.471 -999 0.086048 0.472968 -1.313985
2009-03-02 15:32:34 51°29.918 2°23.365 -999 0.085945 0.472424 -1.313985
2009-03-02 15:33:34 51°29.758 2°23.256 -999 0.085945 0.472482 -1.313985
2009-03-02 15:34:34 51°29.6 2°23.139 -999 0.085945 0.472533 -1.313985
2009-03-02 15:35:34 51°29.455 2°22.994 -999 0.085945 0.472583 -1.313985
2009-03-02 15:36:34 51°29.322 2°22.824 -999 0.085842 0.472055 -1.313985
2009-03-02 15:37:34 51°29.188 2°22.651 -999 0.085842 0.472105 -1.313985
2009-03-02 15:38:34 51°29.053 2°22.482 -999 0.085842 0.472155 -1.313985
2009-03-02 15:39:34 51°28.916 2°22.315 -999 0.085842 0.472206 -1.313985
2009-03-02 15:40:34 51°28.781 2°22.146 -999 0.085842 0.472265 -1.313985
2009-03-02 15:41:34 51°28.644 2°21.978 -999 0.085739 0.471728 -1.313985
2009-03-02 15:42:34 51°28.507 2°21.814 -999 0.085739 0.471778 -1.313985
2009-03-02 15:43:34 51°28.381 2°21.625 -999 0.085739 0.47182 -1.313985
2009-03-02 15:44:34 51°28.277 2°21.444 -999 0.085739 0.471862 -1.313985
2009-03-02 15:45:34 51°28.185 2°21.302 -999 0.085739 0.471904 -1.313985
2009-03-02 15:46:34 51°28.104 2°21.185 -999 0.085636 0.471358 -1.313985
2009-03-02 15:47:34 51°28.054 2°21.117 -999 0.085636 0.4714 -1.348809
2009-03-02 15:48:34 51°28.032 2°21.093 -999 0.085636 0.471434 -1.348809
2009-03-02 15:49:34 51°28.021 2°21.087 -999 0.085636 0.471484 -1.348809
2009-03-02 15:50:34 51°28.031 2°21.087 -999 0.085636 0.471526 -1.348809
2009-03-02 15:51:34 51°28.052 2°21.108 -999 0.085636 0.471568 -1.313985
2009-03-02 15:52:34 51°28.073 2°21.15 -999 0.085533 0.471022 -1.313985
2009-03-02 15:53:34 51°28.092 2°21.192 -999 0.085533 0.471081 -1.313985
2009-03-02 15:54:34 51°28.11 2°21.235 -999 0.085533 0.471156 -1.313985
2009-03-02 15:55:34 51°28.13 2°21.279 -999 0.085533 0.471224 -1.313985
2009-03-02 15:56:34 51°28.152 2°21.321 -999 0.085533 0.471282 -1.313985
2009-03-02 15:57:34 51°28.21 2°21.39 -999 0.085533 0.471358 -1.313985
2009-03-02 15:58:34 51°28.209 2°21.579 -999 0.085533 0.471392 -1.313985
2009-03-02 15:59:34 51°28.131 2°21.831 -999 0.085533 0.471467 -1.313985
2009-03-02 16:00:34 51°28.026 2°22.117 -999 0.085533 0.471534 -1.313985
2009-03-02 16:01:34 51°27.923 2°22.408 -999 0.085533 0.471576 -1.313985
2009-03-02 16:02:34 51°27.828 2°22.708 -999 0.085533 0.47161 -1.313985
2009-03-02 16:03:34 51°27.736 2°23.015 -999 0.085533 0.471652 -1.313985
2009-03-02 16:04:34 51°27.642 2°23.322 -999 0.085533 0.471703 -1.313985
2009-03-02 16:05:34 51°27.53 2°23.61 -999 0.085533 0.471762 -1.313985
2009-03-02 16:06:34 51°27.413 2°23.893 -999 0.085533 0.47182 -1.313985
2009-03-02 16:07:34 51°27.294 2°24.175 -999 0.085533 0.471879 -1.348809
2009-03-02 16:08:34 51°27.178 2°24.452 -999 0.085533 0.471938 -1.348809
2009-03-02 16:09:34 51°27.069 2°24.739 -999 0.085533 0.471981 -1.348809
2009-03-02 16:10:34 51°26.957 2°25.022 -999 0.085533 0.472031 -1.313985
2009-03-02 16:11:34 51°26.849 2°25.311 -999 0.085533 0.472073 -1.313985
2009-03-02 16:12:34 51°26.739 2°25.597 -999 0.085533 0.472115 -1.313985
2009-03-02 16:13:34 51°26.629 2°25.883 -999 0.085533 0.472158 -1.313985
2009-03-02 16:14:34 51°26.516 2°26.164 -999 0.08543 0.471619 -1.313985
2009-03-02 16:15:34 51°26.402 2°26.449 -999 0.08543 0.471669 -1.313985
2009-03-02 16:16:34 51°26.29 2°26.732 -999 0.08543 0.471728 -1.348809
2009-03-02 16:17:34 51°26.178 2°27.014 -999 0.08543 0.471779 -1.313985
2009-03-02 16:18:34 51°26.071 2°27.303 -999 0.08543 0.47183 -1.313985
2009-03-02 16:19:34 51°25.965 2°27.592 -999 0.08543 0.47188 -1.348809
2009-03-02 16:20:34 51°25.858 2°27.88 -999 0.08543 0.471939 -1.313985
2009-03-02 16:21:34 51°25.748 2°28.165 -999 0.08543 0.471981 -1.348809
2009-03-02 16:22:34 51°25.635 2°28.448 -999 0.08543 0.472041 -1.313985
2009-03-02 16:23:34 51°25.521 2°28.733 -999 0.08543 0.472091 -1.313985
2009-03-02 16:24:34 51°25.403 2°29.026 -999 0.08543 0.47215 -1.313985
2009-03-02 16:25:34 51°25.286 2°29.315 -999 0.08543 0.472193 -1.348809
2009-03-02 16:26:34 51°25.168 2°29.599 -999 0.08543 0.472252 -1.348809
2009-03-02 16:27:34 51°25.054 2°29.883 -999 0.08543 0.472302 -1.348809
2009-03-02 16:28:34 51°24.941 2°30.17 -999 0.08543 0.472362 -1.348809
2009-03-02 16:29:34 51°24.832 2°30.461 -999 0.08543 0.472404 -1.348809
2009-03-02 16:30:34 51°24.718 2°30.747 -999 0.08543 0.472455 -1.348809
2009-03-02 16:31:34 51°24.598 2°31.026 -999 0.08543 0.472505 -1.348809
2009-03-02 16:32:34 51°24.48 2°31.304 -999 0.08543 0.472556 -1.348809
2009-03-02 16:33:34 51°24.368 2°31.59 -999 0.08543 0.472615 -1.348809
2009-03-02 16:34:34 51°24.256 2°31.88 -999 0.08543 0.472666 -1.348809
2009-03-02 16:35:34 51°24.14 2°32.171 -999 0.08543 0.472726 -1.348809
2009-03-02 16:36:34 51°24.023 2°32.466 -999 0.08543 0.472776 -1.348809
2009-03-02 16:37:34 51°23.898 2°32.75 -999 0.085327 0.472245 -1.348809
2009-03-02 16:38:34 51°23.749 2°32.982 -999 0.085327 0.472296 -1.348809
2009-03-02 16:39:34 51°23.593 2°33.194 -999 0.085327 0.472329 -1.348809
2009-03-02 16:40:34 51°23.421 2°33.34 -999 0.085327 0.47238 -1.313985
2009-03-02 16:41:34 51°23.243 2°33.434 -999 0.085327 0.47244 -1.348809
2009-03-02 16:42:34 51°23.063 2°33.502 -999 0.085327 0.47249 -1.348809
2009-03-02 16:43:34 51°22.881 2°33.562 -999 0.085327 0.47255 -1.348809
2009-03-02 16:44:34 51°22.694 2°33.611 -999 0.085327 0.472609 -1.348809
2009-03-02 16:45:34 51°22.508 2°33.664 -999 0.085327 0.472677 -1.348809
2009-03-02 16:46:34 51°22.323 2°33.738 -999 0.085327 0.472736 -1.348809
2009-03-02 16:47:34 51°22.171 2°33.931 -999 0.085327 0.472796 -1.348809
2009-03-02 16:48:34 51°22.041 2°34.188 -999 0.085327 0.472855 -1.348809
2009-03-02 16:49:34 51°21.915 2°34.45 -999 0.085327 0.472906 -1.348809
2009-03-02 16:50:34 51°21.789 2°34.713 -999 0.085327 0.472974 -1.348809
2009-03-02 16:51:34 51°21.666 2°34.981 -999 0.085327 0.473017 -1.348809
2009-03-02 16:52:34 51°21.544 2°35.247 -999 0.085327 0.473076 -1.348809
2009-03-02 16:53:34 51°21.424 2°35.518 -999 0.085327 0.473127 -1.348809
2009-03-02 16:54:34 51°21.299 2°35.784 -999 0.085327 0.473178 -1.313985
2009-03-02 16:55:34 51°21.172 2°36.052 -999 0.085327 0.473238 -1.348809
2009-03-02 16:56:34 51°21.048 2°36.323 -999 0.085327 0.473297 -1.348809
2009-03-02 16:57:34 51°20.924 2°36.593 -999 0.085327 0.473365 -1.348809
2009-03-02 16:58:34 51°20.795 2°36.857 -999 0.085327 0.473425 -1.348809
2009-03-02 16:59:34 51°20.666 2°37.118 -999 0.085327 0.473493 -1.348809
2009-03-02 17:00:34 51°20.537 2°37.377 -999 0.085327 0.473553 -1.348809
2009-03-02 17:01:34 51°20.407 2°37.632 -999 0.085327 0.473612 -1.348809
2009-03-02 17:02:34 51°20.275 2°37.889 -999 0.085327 0.47368 -1.348809
2009-03-02 17:03:34 51°20.141 2°38.14 -999 0.085327 0.473732 -1.348809
2009-03-02 17:04:34 51°20.011 2°38.395 -999 0.085327 0.4738 -1.348809
2009-03-02 17:05:34 51°19.878 2°38.65 -999 0.085327 0.473868 -1.348809
2009-03-02 17:06:34 51°19.748 2°38.899 -999 0.085327 0.473928 -1.348809
2009-03-02 17:07:34 51°19.621 2°39.148 -999 0.085327 0.473996 -1.348809
2009-03-02 17:08:34 51°19.491 2°39.39 -999 0.085327 0.474056 -1.348809
2009-03-02 17:09:34 51°19.362 2°39.642 -999 0.085327 0.474124 -1.348809
2009-03-02 17:10:34 51°19.242 2°39.903 -999 0.085327 0.474184 -1.348809
2009-03-02 17:11:34 51°19.121 2°40.157 -999 0.085327 0.474244 -1.348809
2009-03-02 17:12:34 51°19.001 2°40.419 -999 0.085327 0.474295 -1.348809
2009-03-02 17:13:34 51°18.879 2°40.683 -999 0.085327 0.474372 -1.348809
2009-03-02 17:14:34 51°18.753 2°40.949 -999 0.085327 0.474432 -1.348809
2009-03-02 17:15:34 51°18.623 2°41.205 -999 0.085327 0.474466 -1.348809
2009-03-02 17:16:34 51°18.493 2°41.459 -999 0.085327 0.474543 -1.348809
2009-03-02 17:17:34 51°18.363 2°41.708 -999 0.085327 0.474612 -1.348809
2009-03-02 17:18:34 51°18.233 2°41.957 -999 0.085327 0.474663 -1.348809
2009-03-02 17:19:34 51°18.1 2°42.207 -999 0.085327 0.474715 -1.348809
2009-03-02 17:20:34 51°17.966 2°42.459 -999 0.085327 0.474775 -1.348809
2009-03-02 17:21:34 51°17.835 2°42.714 -999 0.085327 0.474835 -1.348809
2009-03-02 17:22:34 51°17.706 2°42.971 -999 0.085327 0.474895 -1.348809
2009-03-02 17:23:34 51°17.581 2°43.226 -999 0.085327 0.474955 -1.348809
2009-03-02 17:24:34 51°17.456 2°43.48 -999 0.085327 0.475015 -1.348809
2009-03-02 17:25:34 51°17.327 2°43.725 -999 0.085327 0.475075 -1.348809
2009-03-02 17:26:34 51°17.196 2°43.966 -999 0.085327 0.475161 -1.348809
2009-03-02 17:27:34 51°17.073 2°44.221 -999 0.085327 0.475221 -1.348809
2009-03-02 17:28:34 51°16.957 2°44.488 -999 0.085327 0.475289 -1.348809
2009-03-02 17:29:34 51°16.845 2°44.759 -999 0.085327 0.475358 -1.348809
2009-03-02 17:30:34 51°16.731 2°45.023 -999 0.085327 0.475418 -1.348809
2009-03-02 17:31:34 51°16.612 2°45.28 -999 0.085327 0.475461 -1.348809
2009-03-02 17:32:34 51°16.496 2°45.54 -999 0.085327 0.475513 -1.348809
2009-03-02 17:33:34 51°16.393 2°45.816 -999 0.085327 0.475582 -1.348809
2009-03-02 17:34:34 51°16.292 2°46.093 -999 0.085224 0.475047 -1.348809
2009-03-02 17:35:34 51°16.197 2°46.382 -999 0.085224 0.475098 -1.348809
2009-03-02 17:36:34 51°16.119 2°46.694 -999 0.085224 0.475176 -1.348809
2009-03-02 17:37:34 51°16.048 2°47.014 -999 0.085224 0.475236 -1.348809
2009-03-02 17:38:34 51°15.966 2°47.329 -999 0.085224 0.475296 -1.348809
2009-03-02 17:39:34 51°15.885 2°47.64 -999 0.085224 0.475357 -1.348809
2009-03-02 17:40:34 51°15.81 2°47.954 -999 0.085224 0.475408 -1.348809
2009-03-02 17:41:34 51°15.742 2°48.266 -999 0.085224 0.47546 -1.348809
2009-03-02 17:42:34 51°15.716 2°48.595 -999 0.085224 0.475529 -1.348809
2009-03-02 17:43:34 51°15.695 2°48.929 -999 0.085224 0.475589 -1.348809
2009-03-02 17:44:34 51°15.671 2°49.263 -999 0.085224 0.475658 -1.348809
2009-03-02 17:45:34 51°15.633 2°49.594 -999 0.085224 0.475718 -1.348809
2009-03-02 17:46:34 51°15.601 2°49.926 -999 0.085224 0.475787 -1.348809
2009-03-02 17:47:34 51°15.572 2°50.259 -999 0.085224 0.475848 -1.348809
2009-03-02 17:48:34 51°15.545 2°50.589 -999 0.085225 0.475917 -1.348809
2009-03-02 17:49:34 51°15.502 2°50.913 -999 0.085225 0.475977 -1.348809
2009-03-02 17:50:34 51°15.441 2°51.23 -999 0.085225 0.476046 -1.348809
2009-03-02 17:51:34 51°15.378 2°51.547 -999 0.085225 0.476116 -1.348809
2009-03-02 17:52:34 51°15.311 2°51.864 -999 0.085225 0.476185 -1.348809
2009-03-02 17:53:34 51°15.257 2°52.184 -999 0.085225 0.476245 -1.348809
2009-03-02 17:54:34 51°15.204 2°52.505 -999 0.085225 0.476314 -1.348809
2009-03-02 17:55:34 51°15.147 2°52.822 -999 0.085225 0.476375 -1.348809
2009-03-02 17:56:34 51°15.087 2°53.135 -999 0.085225 0.476453 -1.348809
2009-03-02 17:57:34 51°15.031 2°53.451 -999 0.085122 0.475916 -1.348809
2009-03-02 17:58:34 51°14.973 2°53.76 -999 0.085122 0.475968 -1.348809
2009-03-02 17:59:34 51°14.875 2°54.026 -999 0.085122 0.476029 -1.348809
2009-03-02 18:00:34 51°14.765 2°54.276 -999 0.085122 0.476089 -1.348809
2009-03-02 18:01:34 51°14.65 2°54.513 -999 0.085122 0.476141 -1.348809
2009-03-02 18:02:34 51°14.543 2°54.73 -999 0.085122 0.476202 -1.348809
2009-03-02 18:03:34 51°14.418 2°54.963 -999 0.085122 0.47628 -1.348809
2009-03-02 18:04:34 51°14.293 2°55.191 -999 0.085122 0.476332 -1.348809
2009-03-02 18:05:34 51°14.189 2°55.355 -999 0.085122 0.476384 -1.348809
2009-03-02 18:06:34 51°14.108 2°55.429 -999 0.085122 0.476436 -1.348809
2009-03-02 18:07:34 51°14.009 2°55.489 -999 0.085019 0.475907 -1.348809
2009-03-02 18:08:34 51°13.884 2°55.572 -999 0.085019 0.475968 -1.348809
2009-03-02 18:09:34 51°13.783 2°55.668 -999 0.085019 0.476029 -1.383633
2009-03-02 18:10:34 51°13.722 2°55.77 -999 0.085019 0.476098 -1.348809
2009-03-02 18:11:34 51°13.68 2°55.871 -999 0.085019 0.47615 -1.348809
2009-03-02 18:12:34 51°13.664 2°55.951 -999 0.085019 0.47622 -1.348809